APRIZESAT 10

Last updated on July 6, 2021, 3:44 p.m. UTC

1 40019U 14033K   21187.04150585  .00000071  00000-0  20517-4 0  9999
2 40019  97.7353   1.0123 0082763 282.5197  76.6759 14.67111349377180
UTC
Height (km)
Latitude
Longitude
Inclination
Orbital Period
UTC large
Height (km)
Speed (km/s)
/
Latitude / Longitude
Inclination (degrees)
Orbital Period (minutes)
Azimuth
Elevation
Range (km)
Doppler Factor
iOS Compass Heading
iOS Angle